Home   Weather   Mason   Past weeks

Flag for USA Past Weather in Mason, Ohio, USA — Yesterday and Last 2 Weeks

Now
76 °F

Clear.


Feels Like: 76 °F
Forecast: 67 / 83 °F
Wind: 5 mph from West

Location: Butler County Regional Airport

Current Time: Jul 23, 2017 at 10:54:58 pm

Latest Report: Jul 23, 2017 at 9:53 pm


Visibility: 10 mi

Pressure: 29.83 "Hg

Humidity: 85%

Dew Point: 71 °F

Location of MasonLocation

Past Weather in Mason — Graph

°F

Mason Temperature Yesterday

Maximum temperature yesterday: 91 °F (at 3:53 pm)
Minimum temperature yesterday: 74 °F (at 5:14 am)
Average temperature yesterday: 81 °F

High & Low Weather Summary for the Past Weeks

 TemperatureHumidityPressure
High91 °F (Jul 22, 3:53 pm)100% (Jul 9, 2:53 am)30.16 "Hg (Jul 9, 2:53 am)
Low53 °F (Jul 9, 6:19 am)39% (Jul 9, 11:53 am)29.77 "Hg (Jul 23, 6:53 pm)
Average76 °F83%30.01 "Hg
* Reported Jul 8 8:53 pm — Jul 23 8:53 pm, Mason. Weather by CustomWeather, © 2017

Note: Actual official high and low records may vary slightly from our data, if they occured in-between our weather recording intervals... More about our weather records

Advertising

Mason Weather History for the Previous 24 Hours

Scroll right to see more
 ConditionsComfort  
Time TempWeatherWind HumidityBarometerVisibility
8:53 pm
Sun, Jul 23
79 °FSunny.8 mph74%29.79 "Hg10 mi
7:53 pm83 °FLight rain. Sunny.10 mph70%29.78 "Hg10 mi
6:53 pm82 °FBroken clouds.8 mph77%29.77 "Hg10 mi
5:53 pm84 °FBroken clouds.12 mph72%29.78 "Hg10 mi
4:53 pm84 °FScattered clouds.9 mph67%29.78 "Hg10 mi
3:53 pm86 °FPassing clouds.8 mph72%29.78 "Hg10 mi
2:53 pm84 °FHaze.12 mph74%29.80 "Hg4 mi
1:53 pm81 °FSunny.9 mph79%29.81 "Hg10 mi
12:53 pm77 °FScattered clouds.5 mph88%29.78 "Hg10 mi
11:53 am74 °FPassing clouds.8 mph91%29.87 "Hg10 mi
11:15 am73 °FScattered clouds.8 mph94%29.88 "Hg10 mi
10:53 am73 °FThundershowers. Broken clouds.10 mph94%29.86 "Hg10 mi
10:38 am72 °FThundershowers. Fog.10 mph93%29.87 "Hg5 mi
9:53 am74 °FBroken clouds.12 mph88%29.88 "Hg10 mi
8:53 am74 °FPartly sunny.5 mph94%29.84 "Hg10 mi
7:53 am73 °FPartly sunny.No wind97%29.83 "Hg10 mi
6:53 am73 °FPartly sunny.3 mph100%29.81 "Hg7 mi
6:33 am73 °FBroken clouds.No wind100%29.83 "Hg7 mi
5:53 am73 °FMostly cloudy.No wind100%29.80 "Hg9 mi
5:40 am73 °FMostly cloudy.No wind97%29.83 "Hg9 mi
5:30 am73 °FOvercast.No wind100%29.84 "Hg8 mi
5:07 am73 °FMostly cloudy.No wind100%29.82 "Hg10 mi
4:36 am73 °FStrong thunderstorms. Fog.5 mph97%29.83 "Hg2 mi
3:53 am74 °FMostly cloudy.7 mph97%29.79 "Hg10 mi
2:53 am75 °FPassing clouds.3 mph96%29.80 "Hg9 mi
2:40 am75 °FLight rain. Partly cloudy.3 mph100%29.82 "Hg7 mi
1:53 am76 °FThunderstorms. Passing clouds.3 mph97%29.82 "Hg8 mi
1:34 am76 °FThunderstorms. Fog.7 mph100%29.84 "Hg6 mi
12:53 am76 °FPassing clouds.3 mph100%29.82 "Hg7 mi
12:25 am76 °FThundershowers. Partly cloudy.No wind97%29.84 "Hg8 mi
11:53 pm
Sat, Jul 22
76 °FThunderstorms. Fog.No wind97%29.83 "Hg5 mi
11:38 pm80 °FStrong thunderstorms. Partly cloudy.16 mph81%29.86 "Hg2 mi
Weather by CustomWeather, © 2017

See weather overviewHow to use our weather pages